Zurück zum Katalog

CZ-6A DEB

AktivSSO
NORAD 54284·DEBRIS·🇨🇳 China

Gestartet Nov 11, 2022 von Taiyuan Satellite Launch Center

Loading…

Nächste Überflüge (nächste 24 Stunden)

TLE

AktuellSource: Space-Track

Epoche: Sep 14, 2026, 11:24 UTC

1 54284U 22151AB  26257.47541775  .00001378  00000-0  69926-3 0  9990
2 54284  98.8321 262.9449 0043685  65.2094 295.3616 14.17120575197477

Verfolge CZ-6A DEB in Echtzeit mit AllMySat

Download on the App Store